FW3274 Weather Reports


time (UTC)temp
F
wind
direction
speed
knots
gust
knots
rain 1hr
in
rain 24hr
in
rain mn
in
humidity
%
barometer
mb
20260502231545 59 223 0.0 0.0 0.00 0.00 0.00 57 1017.1
20260502230044 59 223 0.0 0.0 0.00 0.00 0.00 55 1017.2
20260502224641 59 223 0.0 0.0 0.00 0.00 0.00 55 1017.3
20260502223042 60 223 0.0 0.0 0.00 0.00 0.00 55 1017.4
20260502221538 60 223 0.0 0.0 0.00 0.00 0.00 54 1017.5
20260502220037 60 223 0.0 0.0 0.00 0.00 0.00 54 1017.5
20260502214536 60 223 0.0 0.0 0.00 0.00 0.00 53 1017.5
20260502213036 61 223 0.0 0.0 0.00 0.00 0.00 53 1017.5
20260502211542 61 223 0.0 0.0 0.00 0.00 0.00 52 1017.4
20260502210040 61 223 0.0 0.0 0.00 0.00 0.00 52 1017.4
20260502204534 62 223 0.0 0.0 0.00 0.00 0.00 51 1017.4
20260502203035 62 223 0.0 0.0 0.00 0.00 0.00 51 1017.5
20260502201535 63 223 0.0 0.0 0.00 0.00 0.00 50 1017.5
20260502200034 64 223 0.0 0.0 0.00 0.00 0.00 49 1017.6
20260502194532 64 223 0.0 0.0 0.00 0.00 0.00 48 1017.5
20260502193032 65 223 0.0 0.0 0.00 0.00 0.00 46 1017.4
20260502191531 66 223 0.0 0.0 0.00 0.00 0.00 44 1017.3
20260502190038 67 223 0.0 0.0 0.00 0.00 0.00 43 1017.3
20260502184548 68 223 0.0 0.0 0.00 0.00 0.00 42 1017.1
20260502183046 69 223 0.0 0.0 0.00 0.00 0.00 40 1017.0
20260502181537 70 223 0.0 0.0 0.00 0.00 0.00 39 1016.9
20260502163030 75 234 0.9 7.0 0.00 0.00 0.00 33 1017.1
20260502161525 76 222 0.0 6.1 0.00 0.00 0.00 33 1017.2
20260502151516 76 254 2.6 6.1 0.00 0.00 0.00 34 1017.7
20260502123057 75 232 0.0 8.7 0.00 0.00 0.00 31 1019.8
20260502121554 75 207 0.0 7.0 0.00 0.00 0.00 32 1020.0
20260502114603 74 213 0.0 7.0 0.00 0.00 0.00 35 1020.4
20260502113049 74 259 0.0 8.7 0.00 0.00 0.00 31 1020.6
20260502111551 74 286 3.5 10.4 0.00 0.00 0.00 32 1020.9
20260502110044 73 217 0.0 3.5 0.00 0.00 0.00 31 1021.0
20260502104549 73 206 1.7 6.1 0.00 0.00 0.00 31 1021.3
20260502103040 73 231 1.7 9.6 0.00 0.00 0.00 33 1021.4
20260502101604 72 227 0.0 6.1 0.00 0.00 0.00 33 1021.6
20260502091532 71 230 0.0 3.5 0.00 0.00 0.00 35 1022.2
20260502071517 67 302 0.0 0.0 0.00 0.00 0.00 38 1022.9
20260502070017 67 304 0.0 0.0 0.00 0.00 0.00 40 1023.1
20260502064513 65 302 0.0 0.0 0.00 0.00 0.00 42 1023.1
20260502063008 64 313 0.0 0.0 0.00 0.00 0.00 45 1023.2
20260502061505 62 310 0.0 0.0 0.00 0.00 0.00 46 1023.2
20260502060104 61 321 0.0 0.0 0.00 0.00 0.00 48 1023.3
20260502054559 59 326 0.0 0.0 0.00 0.00 0.00 51 1023.3
20260502053152 57 333 0.0 0.0 0.00 0.00 0.00 54 1023.4
20260502051619 55 360 0.0 0.0 0.00 0.00 0.00 55 1023.4
20260502050051 53 9 0.0 0.0 0.00 0.00 0.00 57 1023.3
20260502044550 51 9 0.0 0.0 0.00 0.00 0.00 61 1023.3
20260502043052 50 9 0.0 0.0 0.00 0.00 0.00 62 1023.2
20260502041549 49 5 0.0 0.0 0.00 0.00 0.00 62 1023.3
20260502040055 49 5 0.0 0.0 0.00 0.00 0.00 62 1023.3
20260502034547 49 5 0.0 0.0 0.00 0.00 0.00 61 1023.3
20260502033046 50 5 0.0 0.0 0.00 0.00 0.00 61 1023.2
20260502031545 49 5 0.0 0.0 0.00 0.00 0.00 60 1023.2
20260502030045 49 5 0.0 0.0 0.00 0.00 0.00 60 1023.4
20260502024543 49 5 0.0 0.0 0.00 0.00 0.00 60 1023.4
20260502023055 50 5 0.0 0.0 0.00 0.00 0.00 60 1023.4
20260502021540 50 5 0.0 0.0 0.00 0.00 0.00 59 1023.5
20260502020048 50 5 0.0 0.0 0.00 0.00 0.00 57 1023.5
20260502014535 51 5 0.0 0.0 0.00 0.00 0.00 56 1023.5
20260502013052 52 5 0.0 0.0 0.00 0.00 0.00 54 1023.5
20260502011530 53 5 0.0 0.0 0.00 0.00 0.00 52 1023.5
20260502010026 54 277 0.0 0.0 0.00 0.00 0.00 51 1023.4
20260502004524 55 277 0.0 0.0 0.00 0.00 0.00 50 1023.3
20260502003026 55 278 0.0 0.0 0.00 0.00 0.00 49 1023.4
20260502001522 55 275 0.0 0.0 0.00 0.00 0.00 49 1023.5
20260502000021 55 275 0.0 0.0 0.00 0.00 0.00 49 1023.5
20260501234519 55 274 0.0 0.0 0.00 0.00 0.00 47 1023.5
20260501233021 56 274 0.0 0.0 0.00 0.00 0.00 46 1023.6